#timestamp,LO_Frequency,Hit,StdDev 
1569898815.1,286047003.5,N
1569898835.8,286047001.4,N
1569898855.7,286047002.8,N
1569898875.5,286047002.7,N
1569898895.4,286047000.2,N
1569898915.2,286047001.6,N
1569898935.0,286047002.1,N
1569898935.9,286047002.1,N
1569898955.8,286047001.3,N
1569898975.6,286047003.7,N
1569898995.4,286047003.4,N
1569899015.3,286047002.9,N
1569899035.1,286047005.7,Y
1569899055.9,286047002.1,P
1569899075.7,286046999.9,N
1569899095.5,286047000.0,N
1569899115.4,286046999.7,N
1569899135.2,286047002.0,N
1569899155.0,286047002.1,N
1569899155.9,286047002.1,N
1569899175.8,286047000.4,N
1569899195.6,286047000.7,N
1569899215.5,286046999.3,N
1569899235.3,286046998.7,N
1569899255.1,286047000.3,N
1569899275.9,286047000.7,N
1569899295.7,286047000.2,N
1569899315.5,286046999.8,N
1569899335.4,286047000.2,N
1569899355.2,286047001.3,N
1569899375.1,286047004.1,Y
1569899376.0,286047004.1,P
1569899395.8,286047002.3,N
1569899415.6,286047000.0,N
1569899435.5,286047001.5,N
1569899455.3,286047001.0,N
1569899475.1,286046999.6,N
1569899495.9,286046999.0,N
1569899515.7,286046999.6,N
1569899535.6,286046999.3,N
1569899555.4,286047000.3,N
1569899575.2,286047001.1,N
1569899595.1,286047001.0,N
1569899596.0,286047001.0,N
1569899615.8,286047000.6,N
1569899635.6,286047000.2,N
1569899655.5,286047001.7,N
1569899675.3,286047004.3,Y
1569899695.2,286046999.8,P
1569899715.0,286046999.8,N
1569899715.9,286046999.8,N
1569899735.7,286047002.7,Y
1569899755.6,286047000.1,P
1569899775.4,286046998.3,P
1569899795.3,286046998.6,N
1569899815.1,286046998.5,N
1569899835.8,286046998.1,N
1569899855.7,286047000.9,N
1569899875.5,286046999.3,N
1569899895.3,286046999.7,N
1569899915.2,286047002.6,N
1569899935.0,286046999.0,N
1569899935.9,286046999.0,N
1569899955.8,286046998.8,N
1569899975.6,286046998.6,N
1569899995.4,286046999.3,N
1569900015.3,286047001.0,N
1569900035.1,286047000.7,N
1569900055.8,286047000.9,N
1569900075.7,286047002.3,N
1569900095.5,286046999.0,N
1569900115.4,286047001.1,N
1569900135.2,286047001.1,N
1569900155.0,286046999.9,N
1569900155.9,286046999.9,N
1569900175.8,286047002.5,N
1569900195.6,286047002.1,N
1569900215.4,286047001.4,N
1569900235.3,286047001.9,N
1569900255.1,286047002.0,N
1569900275.9,286047001.4,N
1569900295.7,286047004.0,N
1569900315.5,286047003.2,N
1569900335.4,286047005.7,Y
1569900355.2,286047005.5,P
1569900375.1,286047003.4,N
1569900376.0,286047003.4,N
1569900395.8,286047005.8,Y
1569900415.6,286047001.6,P
1569900435.5,286047001.5,N
1569900455.3,286047001.9,N
1569900475.1,286047001.6,N
1569900495.9,286047004.3,Y
1569900515.7,286047002.5,P
1569900535.6,286047002.4,P
1569900555.4,286047000.7,N
1569900575.2,286047001.2,N
1569900595.1,286047000.8,N
1569900596.0,286047000.8,N
1569900615.8,286047000.4,N
1569900635.6,286047002.0,N
1569900655.5,286047002.4,Y
1569900675.3,286047000.2,P
1569900695.2,286046999.2,N
1569900715.9,286047000.2,N
1569900735.7,286047001.0,N
1569900755.6,286046999.1,N
1569900775.4,286046999.5,N
1569900795.2,286046998.9,N
1569900815.1,286046998.5,N
1569900816.0,286046998.5,N
1569900835.8,286047001.2,N
1569900855.7,286046999.5,N
1569900875.5,286046997.1,N
1569900895.3,286046999.0,N
1569900915.2,286046999.1,N
1569900935.0,286046996.6,Y
1569900935.9,286046996.6,P
1569900955.8,286046997.2,N
1569900975.6,286046994.9,P
1569900995.4,286046995.2,N
1569901015.3,286046993.6,Y
1569901035.1,286046996.9,P
1569901055.8,286046997.0,P
1569901075.7,286046996.5,P
1569901095.5,286046998.9,Y
1569901115.4,286047002.3,P
1569901135.2,286047003.0,N
1569901155.0,286047004.2,N
1569901155.9,286047004.2,N
1569901175.8,286047002.8,N
1569901195.6,286047000.3,N
1569901215.4,286047001.2,N
1569901235.3,286047001.2,N
1569901255.1,286047002.4,N
1569901275.9,286047002.8,N
1569901295.7,286047001.7,N
1569901315.5,286047001.5,N
1569901335.4,286047002.6,N
1569901355.2,286046999.9,N
1569901375.0,286047000.9,N
1569901376.0,286047000.9,N
1569901395.8,286047001.2,N
1569901415.6,286047000.2,N
1569901435.5,286047004.2,N
1569901455.3,286047001.3,N
1569901475.1,286047002.7,N
1569901495.9,286047000.1,N
1569901515.7,286047002.2,N
1569901535.6,286047002.4,N
1569901555.4,286047000.6,N
1569901575.2,286047000.2,N
1569901595.1,286047002.4,N
1569901596.0,286047002.4,N
1569901615.8,286047000.0,N
1569901635.6,286046999.0,N
1569901655.5,286047000.6,N
1569901675.3,286047000.2,N
1569901695.2,286047000.6,N
1569901715.9,286046999.9,N
1569901735.7,286047001.1,N
1569901755.6,286047000.9,N
1569901775.4,286047000.1,N
1569901795.2,286047001.2,N
1569901815.1,286047000.6,N
1569901816.0,286047000.6,N
1569901835.8,286046999.8,N
1569901855.7,286046998.9,N
1569901875.5,286046999.3,N
1569901895.3,286046998.3,N
1569901915.2,286046999.0,N
1569901935.0,286046996.6,N
1569901935.9,286046996.6,N
1569901955.8,286046998.9,N
1569901975.6,286046998.8,N
1569901995.4,286046999.4,N
1569902015.3,286046996.6,N
1569902035.1,286046995.8,N
1569902055.8,286046995.5,N
1569902075.7,286046995.3,N
1569902095.5,286046997.9,N
1569902115.4,286046997.6,N
1569902135.2,286046996.1,N
1569902155.0,286046995.7,N
1569902155.9,286046995.7,N
1569902175.8,286046995.4,N
1569902195.6,286046996.1,N
1569902215.5,286046993.5,Y
1569902235.3,286046998.0,P
1569902255.1,286046999.6,P
1569902275.9,286046996.9,P
1569902295.7,286046999.1,N
1569902315.6,286047001.2,N
1569902335.4,286046998.4,N
1569902355.2,286047000.9,N
1569902375.1,286047000.6,N
1569902376.0,286047000.6,N
1569902395.8,286046999.9,N
